SWR1AB LPPT-LSZH

Flight info

Callsign SWR1AB
Flight time N/A
Altitude 38000
Route IXIDA DCT TOSDI DCT ZMR DCT NEA DCT DGO DCT LPA DCT GOSVI DCT TOPTU DCT TOU DCT GAI DCT MEN DCT NINUN DCT LATAM DCT ETREK DCT LTP DCT SOPLO DCT OMASI DCT KINNI DCT LAMUR DCT GUDAX Z57 DOPIL
Aircraft B77W/H-SDE1E2E3FGHIJ2J3J4J5M1RWXY/LB1D1

Departure

Time N/A
Airport Lisbon Humberto Delgado Airport (LPPT)

Arrival

Time 2026-04-26 20:16
Airport Zürich Airport (LSZH)
Time Latitude Longitude Altitude Speed Heading
2026-04-26 19:37 47.71295 7.84042 38218 ft 343 kts 324°
2026-04-26 19:38 47.75133 7.79913 37826 ft 341 kts 324°
2026-04-26 19:38 47.77087 7.77810 36779 ft 352 kts 324°
2026-04-26 19:38 47.79086 7.75658 35750 ft 367 kts 324°
2026-04-26 19:39 47.81194 7.73386 34612 ft 385 kts 324°
2026-04-26 19:39 47.83385 7.71027 33233 ft 403 kts 324°
2026-04-26 19:39 47.85675 7.68558 31753 ft 422 kts 324°
2026-04-26 19:39 47.88073 7.65973 30173 ft 441 kts 324°
2026-04-26 19:40 47.90578 7.63271 28539 ft 457 kts 324°
2026-04-26 19:40 47.93177 7.60464 27542 ft 458 kts 324°
2026-04-26 19:40 47.95715 7.57722 27149 ft 447 kts 324°
2026-04-26 19:40 47.98206 7.55025 26746 ft 438 kts 324°
2026-04-26 19:41 48.00628 7.52399 26540 ft 434 kts 324°
2026-04-26 19:41 48.03118 7.49696 26770 ft 447 kts 324°
2026-04-26 19:41 48.05642 7.46954 26740 ft 451 kts 324°
2026-04-26 19:41 48.06480 7.46042 26698 ft 449 kts 324°
2026-04-26 19:42 48.10158 7.41001 25737 ft 443 kts 311°
2026-04-26 19:42 48.11921 7.37228 24854 ft 444 kts 301°
2026-04-26 19:42 48.13215 7.33049 24096 ft 443 kts 290°
2026-04-26 19:42 48.13996 7.28611 23451 ft 439 kts 281°
2026-04-26 19:43 48.14254 7.24096 22820 ft 437 kts 271°
2026-04-26 19:43 48.14004 7.19635 22132 ft 437 kts 262°
2026-04-26 19:43 48.13334 7.15672 21610 ft 434 kts 253°
2026-04-26 19:43 48.12094 7.11616 21691 ft 433 kts 243°
2026-04-26 19:44 48.10371 7.07873 21947 ft 443 kts 233°
2026-04-26 19:44 48.08226 7.04544 21873 ft 444 kts 224°
2026-04-26 19:44 48.05779 7.01816 21380 ft 442 kts 214°
2026-04-26 19:44 48.03031 6.99698 20548 ft 446 kts 204°
2026-04-26 19:45 48.00071 6.98315 19728 ft 450 kts 194°
2026-04-26 19:45 47.96999 6.97731 19048 ft 449 kts 184°
2026-04-26 19:45 47.93897 6.97943 18442 ft 445 kts 173°
2026-04-26 19:45 47.90894 6.98903 17814 ft 442 kts 163°
2026-04-26 19:46 47.88137 7.00516 17218 ft 438 kts 154°
2026-04-26 19:46 47.85550 7.02799 16625 ft 434 kts 144°
2026-04-26 19:46 47.83237 7.05681 16014 ft 429 kts 135°
2026-04-26 19:46 47.81314 7.08976 15417 ft 423 kts 126°
2026-04-26 19:47 47.79592 7.12432 14836 ft 419 kts 126°
2026-04-26 19:47 47.79007 7.13617 14638 ft 417 kts 126°
2026-04-26 19:47 47.76180 7.19344 13664 ft 410 kts 126°
2026-04-26 19:47 47.74511 7.22720 13077 ft 406 kts 126°
2026-04-26 19:48 47.72839 7.26097 12483 ft 403 kts 126°
2026-04-26 19:48 47.71209 7.29387 11912 ft 398 kts 126°
2026-04-26 19:48 47.69572 7.32685 11333 ft 394 kts 126°
2026-04-26 19:48 47.67957 7.35934 10741 ft 391 kts 126°
2026-04-26 19:49 47.66360 7.39145 10158 ft 387 kts 126°
2026-04-26 19:49 47.64772 7.42332 9688 ft 380 kts 126°
2026-04-26 19:49 47.63228 7.45429 9524 ft 365 kts 126°
2026-04-26 19:49 47.61766 7.48358 9432 ft 349 kts 126°
2026-04-26 19:50 47.60346 7.51198 9370 ft 333 kts 126°
2026-04-26 19:50 47.59011 7.53866 9340 ft 318 kts 126°
2026-04-26 19:50 47.57717 7.56450 9310 ft 303 kts 126°
2026-04-26 19:50 47.56486 7.58904 9248 ft 291 kts 125°
2026-04-26 19:51 47.55294 7.61282 8975 ft 288 kts 126°
2026-04-26 19:51 47.54107 7.63647 8761 ft 291 kts 125°
2026-04-26 19:51 47.52804 7.66243 8792 ft 336 kts 126°
2026-04-26 19:51 47.51456 7.69206 8774 ft 348 kts 115°
2026-04-26 19:52 47.50831 7.72516 8772 ft 328 kts 95°
2026-04-26 19:52 47.50745 7.75803 8776 ft 310 kts 90°
2026-04-26 19:52 47.50720 7.78901 8768 ft 295 kts 90°
2026-04-26 19:52 47.50699 7.81847 8759 ft 281 kts 90°
2026-04-26 19:53 47.50679 7.84699 8614 ft 273 kts 90°
2026-04-26 19:53 47.50659 7.87487 8302 ft 272 kts 90°
2026-04-26 19:53 47.50639 7.90268 7998 ft 270 kts 90°
2026-04-26 19:53 47.50618 7.93028 7701 ft 269 kts 90°
2026-04-26 19:54 47.50596 7.95772 7401 ft 267 kts 89°
2026-04-26 19:54 47.50574 7.98506 7101 ft 266 kts 89°
2026-04-26 19:54 47.50552 8.01229 6817 ft 264 kts 90°
2026-04-26 19:54 47.50422 8.03937 6514 ft 263 kts 99°
2026-04-26 19:55 47.49948 8.06549 6224 ft 262 kts 108°
2026-04-26 19:55 47.49355 8.09038 6048 ft 256 kts 108°
2026-04-26 19:55 47.48753 8.11558 6027 ft 260 kts 108°
2026-04-26 19:55 47.48149 8.14086 6031 ft 259 kts 108°
2026-04-26 19:56 47.47547 8.16632 6027 ft 259 kts 105°
2026-04-26 19:56 47.47317 8.19215 6018 ft 258 kts 85°
2026-04-26 19:56 47.47732 8.21780 6019 ft 257 kts 65°
2026-04-26 19:56 47.48599 8.24081 6020 ft 257 kts 51°
2026-04-26 19:57 47.49958 8.25765 6016 ft 257 kts 27°
2026-04-26 19:57 47.51685 8.26471 6022 ft 257 kts
2026-04-26 19:57 47.53437 8.26059 6018 ft 258 kts 338°
2026-04-26 19:57 47.54930 8.24604 6025 ft 259 kts 316°
2026-04-26 19:58 47.56194 8.22677 6034 ft 260 kts 315°
2026-04-26 19:58 47.57481 8.20783 6034 ft 260 kts 317°
2026-04-26 19:58 47.58785 8.18951 6036 ft 260 kts 318°
2026-04-26 19:58 47.60254 8.17473 6022 ft 258 kts 340°
2026-04-26 19:59 47.62009 8.17075 6023 ft 257 kts
2026-04-26 19:59 47.63693 8.17858 6027 ft 257 kts 31°
2026-04-26 19:59 47.65075 8.19565 6038 ft 257 kts 45°
2026-04-26 19:59 47.66309 8.21500 6028 ft 257 kts 51°
2026-04-26 20:00 47.67068 8.23858 6024 ft 258 kts 78°
2026-04-26 20:00 47.67072 8.26542 6002 ft 261 kts 93°
2026-04-26 20:00 47.67285 8.29169 5763 ft 257 kts 65°
2026-04-26 20:00 47.68321 8.31234 5777 ft 257 kts 37°
2026-04-26 20:01 47.69912 8.32590 6187 ft 266 kts 31°
2026-04-26 20:01 47.71288 8.34485 6060 ft 267 kts 51°
2026-04-26 20:01 47.72395 8.36693 6043 ft 269 kts 53°
2026-04-26 20:01 47.73483 8.38919 6042 ft 268 kts 53°
2026-04-26 20:02 47.74568 8.41160 6036 ft 268 kts 56°
2026-04-26 20:02 47.75255 8.43722 6028 ft 269 kts 81°
2026-04-26 20:02 47.75117 8.46485 6025 ft 270 kts 107°
2026-04-26 20:02 47.74894 8.47327 6023 ft 271 kts 115°
2026-04-26 20:03 47.72959 8.51037 6042 ft 274 kts 130°
2026-04-26 20:03 47.71685 8.53177 6043 ft 274 kts 130°
2026-04-26 20:03 47.70433 8.55274 6033 ft 274 kts 130°
2026-04-26 20:03 47.69167 8.57392 6035 ft 274 kts 130°
2026-04-26 20:04 47.67905 8.59503 6061 ft 277 kts 130°
2026-04-26 20:04 47.66656 8.61707 6455 ft 277 kts 127°
2026-04-26 20:04 47.65467 8.63930 6889 ft 277 kts 127°
2026-04-26 20:04 47.64289 8.66114 7029 ft 280 kts 128°
2026-04-26 20:05 47.63056 8.68379 7048 ft 279 kts 128°
2026-04-26 20:05 47.61833 8.70619 7041 ft 279 kts 128°
2026-04-26 20:05 47.60627 8.72823 7033 ft 278 kts 128°
2026-04-26 20:05 47.59406 8.75054 7039 ft 278 kts 128°
2026-04-26 20:06 47.58186 8.77281 7043 ft 278 kts 128°
2026-04-26 20:06 47.56970 8.79498 7040 ft 279 kts 128°
2026-04-26 20:06 47.55907 8.81879 7039 ft 277 kts 112°
2026-04-26 20:06 47.55408 8.84629 7037 ft 276 kts 97°
2026-04-26 20:07 47.55173 8.87429 7044 ft 276 kts 95°
2026-04-26 20:07 47.54964 8.90242 7049 ft 276 kts 95°
2026-04-26 20:07 47.54756 8.93072 7033 ft 275 kts 95°
2026-04-26 20:07 47.54551 8.95844 6947 ft 265 kts 95°
2026-04-26 20:08 47.54354 8.98515 6705 ft 262 kts 95°
2026-04-26 20:08 47.54112 9.01183 6400 ft 262 kts 104°
2026-04-26 20:08 47.53292 9.03579 6042 ft 263 kts 130°
2026-04-26 20:08 47.51848 9.05208 5702 ft 263 kts 155°
2026-04-26 20:09 47.50059 9.05755 5383 ft 264 kts 179°
2026-04-26 20:09 47.48238 9.05602 5113 ft 262 kts 184°
2026-04-26 20:09 47.46436 9.05322 5056 ft 261 kts 185°
2026-04-26 20:09 47.44686 9.04602 5048 ft 262 kts 209°
2026-04-26 20:10 47.43343 9.02828 5041 ft 263 kts 237°
2026-04-26 20:10 47.42688 9.00326 5043 ft 262 kts 264°
2026-04-26 20:10 47.42706 8.97641 5045 ft 260 kts 276°
2026-04-26 20:10 47.42887 8.95012 5053 ft 261 kts 277°
2026-04-26 20:11 47.43091 8.92346 5047 ft 260 kts 277°
2026-04-26 20:11 47.43289 8.89704 5042 ft 260 kts 277°
2026-04-26 20:11 47.43455 8.87015 5023 ft 260 kts 271°
2026-04-26 20:12 47.43802 8.82043 5022 ft 230 kts 280°
2026-04-26 20:12 47.44027 8.79714 4725 ft 223 kts 278°
2026-04-26 20:12 47.44196 8.77530 4429 ft 210 kts 277°
2026-04-26 20:12 47.44340 8.75445 4140 ft 197 kts 277°
2026-04-26 20:13 47.44474 8.73488 3865 ft 187 kts 277°
2026-04-26 20:13 47.44607 8.71635 3601 ft 172 kts 278°
2026-04-26 20:13 47.44728 8.69954 3348 ft 163 kts 278°
2026-04-26 20:13 47.44848 8.68299 3110 ft 159 kts 278°
2026-04-26 20:14 47.44965 8.66687 2868 ft 157 kts 278°
2026-04-26 20:14 47.45078 8.65116 2632 ft 155 kts 278°
2026-04-26 20:14 47.45193 8.63541 2394 ft 154 kts 278°
2026-04-26 20:14 47.45311 8.61964 2164 ft 153 kts 277°
2026-04-26 20:15 47.45423 8.60403 1947 ft 152 kts 277°
2026-04-26 20:15 47.45531 8.58854 1707 ft 151 kts 277°
2026-04-26 20:15 47.45643 8.57338 1478 ft 146 kts 276°
2026-04-26 20:15 47.45737 8.55907 1391 ft 128 kts 277°
2026-04-26 20:16 47.45813 8.54875 1390 ft 61 kts 275°
2026-04-26 20:16 47.45816 8.54556 1390 ft 24 kts 262°
2026-04-26 20:16 47.45782 8.54356 1392 ft 11 kts 251°
2026-04-26 20:16 47.45748 8.54256 1393 ft 10 kts 233°
2026-04-26 20:17 47.45696 8.54209 1395 ft 7 kts 184°
2026-04-26 20:17 47.45647 8.54228 1396 ft 6 kts 148°
2026-04-26 20:17 47.45613 8.54287 1395 ft 9 kts 116°
2026-04-26 20:17 47.45595 8.54358 1395 ft 12 kts 109°
2026-04-26 20:18 47.45552 8.54547 1392 ft 16 kts 108°
2026-04-26 20:18 47.45517 8.54710 1390 ft 16 kts 108°
2026-04-26 20:18 47.45482 8.54868 1390 ft 15 kts 109°
2026-04-26 20:18 47.45449 8.55013 1391 ft 14 kts 109°
2026-04-26 20:19 47.45419 8.55141 1393 ft 11 kts 110°
2026-04-26 20:19 47.45397 8.55228 1394 ft 7 kts 113°
2026-04-26 20:19 47.45377 8.55289 1395 ft 6 kts 117°
2026-04-26 20:19 47.45351 8.55359 1392 ft 10 kts 120°
2026-04-26 20:20 47.45309 8.55469 1390 ft 12 kts 120°
2026-04-26 20:20 47.45277 8.55584 1390 ft 11 kts 103°
2026-04-26 20:20 47.45266 8.55703 1390 ft 11 kts 97°
2026-04-26 20:20 47.45259 8.55794 1390 ft 1 kts 99°
2026-04-26 20:21 47.45258 8.55798 1390 ft 0 kts 114°
2026-04-26 20:21 47.45245 8.55806 1390 ft 4 kts 176°
2026-04-26 20:21 47.45214 8.55805 1390 ft 4 kts 185°
2026-04-26 20:21 47.45193 8.55803 1390 ft 2 kts 185°
2026-04-26 20:22 47.45178 8.55801 1390 ft 1 kts 186°
2026-04-26 20:22 47.45177 8.55800 1390 ft 0 kts 186°